OPS 4682 DEB, 38460

Orbit data source: Space-Track

OPS 4682 DEB, 38460 is space debris in LEO originally from a launch on Sat, 03 Apr 1965 UTC launched from the Air Force Western Test Range (AFWTR). Debris objects in space refer to the collection of defunct objects orbiting the Earth. Examples of debris include non-operational satellites, rocket bodies, and fragments generated from explosions, collisions, or faulty payload assembly.

Loading next visibility...
Identifier
38460, 1965-027FR
Orbit
LEO
Country
Flag of USUS
Related business
Manufacturer
Unknown
Mission
Spacecraft
Bus & Motor
Unknown
Mass
Unknown
Launch date (UTC)
1965-04-03 (61 years ago)
Launch vehicle
Unknown
Launch site
Air Force Western Test Range (AFWTR)
Object type
Payload
Rocket body
Debris
Shape & HBR
Unknown shape, 0.1 m
Radar Cross Section
Small (<0.1 m²)

Expand to show TLE details & history
Last TLE update: 13 hours ago

TLE from 13 hours ago
0 OPS 4682 DEB
1 38460U 65027FR  26104.44948760  .00000196  00000-0  66944-3 0  9994
2 38460  90.2366   1.1395 0031966  23.3688 157.3021 12.95174560747358
Epoch: 2026-04-14T10:47Z
TLE epoch observation values (Epoch: 2026-04-14T10:47:15.728Z)
Latitude
-0.92877°
Longitude
176.69458°
Altitude
1,306.657 km
Speed
7.193 km/s
True Right ascension
12h 04m 32s
True Declination
0° 55' 25"
Sunlit
Object was in full shadow at epoch
Visualization orbit readout
Latitude
Unknown
Longitude
Unknown
Altitude
Unknown
Speed
Unknown
Apparent Right ascension
Unknown
Apparent Declination
Unknown
Sunlit
N/A
Visualization observer readout
Local Sidereal Time
05:49:52
Azimuth
Unknown
Elevation
Unknown
Doppler factor
Unknown
Orbital elements
Apogee altitude
1,302.66 km
Perigee altitude
1,253.712 km
Semi-major axis
7,656.323 km
Eccentricity
0.0032
Inclination
90.2366°
RAAN
1.1395°
Arg. of periapsis
23.3688°
True anomaly
157.44293°
Mean anomaly
157.3021°
Eccentric anomaly
157.37257°
Mean motion
3.23976 °/min
Orbital period
111.12 mins
BSTAR
0.00066944
Loading maneuver chart data...
Computing Atmospheric mass density...
Loading historical data...
Loading historical data...
Loading historical data...
Loading historical data...
Loading historical data...
Loading historical data...
Loading historical data...

Documentation

Showing up to 5 results
|